Regional Weather Roundup
Issued by NWS Charleston, SC

Current Version | Previous Version | Graphics & Text | Print | Product List | Glossary On
Versions: 1 2 3 4 5 6 7 8 9 10 11 12 13 14 15 16 17 18 19 20 21 22 23 24 25 26 27 28 29 30 31 32 33 34 35 36 37 38 39 40 41 42 43 44 45 46 47 48 49 50
000
ASUS42 KCHS 160012
RWRCHS

Regional Weather Roundup
National Weather Service Charleston SC
700 PM EST MON JAN 15 2018

NOTE: "fair" indicates few or no clouds below 12,000 feet with no
significant weather and/or obstructions to visibility.

Not all stations are quality controlled. Use data with caution,
especially dewpoint observations.

SCZ027-030-031-034>040-042>050-160100-
...Southeast South Carolina...

CITY           SKY/WX    TMP DP  RH WIND       PRES   REMARKS
N Charleston   FAIR      39  19  44 N3        30.46R
6HR MIN TEMP:  37; 6HR MAX TEMP:  49;

Waterfront Prk NOT AVBL
Mount Pleasant FAIR      37  27  65 CALM      30.46R
Johns Island   FAIR      39  19  45 CALM      30.46R
Pinopolis        N/A     43  23  45 N7        30.38R
Moncks Corner  FAIR      32  23  69 CALM      30.46R
Summerville    FAIR      36  23  60 CALM      30.47R
Beaufort MCAS  FAIR      39  30  70 CALM      30.45R
6HR MIN TEMP:  39; 6HR MAX TEMP:  50;

Beaufort Arpt  FAIR      39  27  60 N5        30.45R WCI  36
Hilton Head Is NOT AVBL
Walterboro     FAIR      34  23  64 CALM      30.47R
Allendale      FAIR      36  23  60 CALM      30.45R

...Southern Midlands and Pee Dee...

CITY           SKY/WX    TMP DP  RH WIND       PRES   REMARKS
Georgetown     FAIR      36  18  48 CALM      30.46R
Kingstree      FAIR      32  19  59 CALM      30.46R
Orangeburg     FAIR      35  20  54 CALM      30.45R
6HR MIN TEMP:  35; 6HR MAX TEMP:  46;

Barnwell         N/A     37  23  56 CALM      30.45R
Aiken          FAIR      32  21  64 CALM      30.46S
Manning        FAIR      32  21  64 MISG      30.46R
Columbia       FAIR      34  21  59 W3        30.45R
6HR MIN TEMP:  34; 6HR MAX TEMP:  46;

Sumter         FAIR      34  18  51 CALM      30.43R
6HR MIN TEMP:  34; 6HR MAX TEMP:  44;

Florence       FAIR      34  14  43 N3        30.46R
6HR MIN TEMP:  34; 6HR MAX TEMP:  43;

Myrtle Beach   FAIR      37  20  50 NW6       30.46R WCI  32
N Myrtle Beach FAIR      37  24  59 N5        30.44R WCI  33
6HR MIN TEMP:  37; 6HR MAX TEMP:  46;


$$

GAZ063-065-086>088-099>101-113>116-118-119-134>141-150-160100-
...Southeast Georgia...

CITY           SKY/WX    TMP DP  RH WIND       PRES   REMARKS
Savannah Arpt  FAIR      42  22  44 NE6       30.45R
6HR MIN TEMP:  41; 6HR MAX TEMP:  52;

Hunter AAF     FAIR      43  21  42 CALM      30.42R
6HR MIN TEMP:  43; 6HR MAX TEMP:  52;

Fort Stewart   FAIR      40  28  61 CALM      30.42R
6HR MIN TEMP:  40; 6HR MAX TEMP:  52;

Statesboro     FAIR      35  26  69 CALM      30.44S
Sylvania       FAIR      37  30  73 CALM      30.44F
Claxton        FAIR      37  32  79 CALM      30.44R

...CSRA, Central and far Southeast Georgia...

CITY           SKY/WX    TMP DP  RH WIND       PRES   REMARKS
Thomson        FAIR      34  22  62 SE5       30.48R WCI  30
Augusta-Bush   FAIR      35  23  61 CALM      30.44R
6HR MIN TEMP:  34; 6HR MAX TEMP:  48;

Augusta-Daniel FAIR      42  19  39 CALM      30.43S
Swainsboro     FAIR      37  30  75 CALM      30.44R
Vidalia        FAIR      43  30  61 CALM      30.44R
Eastman        FAIR      42  22  46 CALM      30.45S
Hazlehurst     FAIR      42  26  52 CALM      30.42R
Alma           FAIR      38  31  76 CALM      30.43R
6HR MIN TEMP:  38; 6HR MAX TEMP:  54;

Waycross       FAIR      42  31  66 CALM      30.42S
Jesup          NOT AVBL
Baxley         FAIR      37  32  81 CALM      30.43R
Brunswick      FAIR      37  32  81 CALM      30.45R
Saint Simons   FAIR      42  32  67 NE3       30.44R
6HR MIN TEMP:  42; 6HR MAX TEMP:  48;


$$

SCZ027-028-034-036>038-045-046-048>050-GAZ119-141-160100-
...Lake and Supplemental Coastal Observations...

STATION/POSITION TIME  TEMP    WIND        PRES    WAVE   SWELL
                       AIR SEA DIR/SP/G            HT/PER HT/PER/DIR
                 (UTC) (F)     (DEG/KT/KT) (MB)    (FT/S) (FT/S/D)
Winyah Bay       NOT AVBL
Lake Murray      2320   39      CALM  /  2 1029.8
ACE Basin NERRS  2245   43     350/  1     1030.0
Fort Pulaski     2342   45 46   40/  5/  6 1031.3R
Sapelo Island    2300   42      90/  4     1030.0

$$

ANZ835-935-AMZ111-154-330-350-352-354-370-450-454-472-160100-
...C-MAN and Buoy Observations...

STATION/POSITION TIME  TEMP    WIND        PRES    WAVE   SWELL
                       AIR SEA DIR/SP/G            HT/PER HT/PER/DIR
                 (UTC) (F)     (DEG/KT/KT) (MB)    (FT/S) (FT/S/D)
Buoy 41004       2350   48 70  360/ 14/ 19 1029.9R   5/ 9   3/ 90/ 9
Buoy 41008       2350   46 50   50/ 10/ 14 1030.2R   4/10   3/110/10
Folly Beach CMAN 2300   42     330/  6/  7 1031.1R
Capers Nearshore NOT AVBL
Fripp Nearshore  2308   43 47  360/  8/ 10 1029.6R


STATION/POSITION TIME  TEMP    WIND        PRES    WAVE   SWELL
                       AIR SEA DIR/SP/G            HT/PER HT/PER/DIR
                 (UTC) (F)     (DEG/KT/KT) (MB)    (FT/S) (FT/S/D)
5E St. Marys GA  2330      50                N/A     5/10   2/ 90/11
Frying Pan Buoy  2350   46 59  350/ 14/ 16 1029.5R   5/10   3/100/10
Buoy 41025       2350   43 69  350/ 23/ 29 1028.9F   8/10   5/ 70/10
Cape Lookout NC  2300          340/ 14/ 16 1029.8R
Buoy 41002       2350   65 70   10/ 17/ 21 1024.7R  10/ 9   8/ 40/ 9
Buoy 41010       NOT AVBL
St Augustine FL  0000   48 52   20/ 18/ 19 1029.7R


$$




USA.gov is the U.S. government's official web portal to all federal, state and local government web resources and services.